Location: Gulgong NSW 2852, Australia
(32.2976°S, 149.5548°E)
Time: 02:33:57
(UTC+10:00)

N. Korean satellite - Visible Passes

Search period start: 16 May 2021 00:00
Search period end: 26 May 2021 00:00
Orbit: 450 x 501 km, 97.2° (Epoch: 14 May)

Date Brightness Start Highest point End Pass type
(mag) Time Alt. Az. Time Alt. Az. Time Alt. Az.
17 May 8.9 05:18:06 10° NNW 05:18:27 12° NNW 05:18:27 12° NNW visible
17 May 9.7 18:22:22 10° SW 18:24:07 13° WSW 18:25:52 10° W visible
18 May 8.9 04:50:26 10° N 04:51:02 14° N 04:51:02 14° N visible
18 May 8.8 17:53:59 10° SSW 17:57:14 28° WSW 18:00:25 10° NW visible
19 May 9.6 04:23:29 10° NNE 04:23:36 11° NNE 04:23:36 11° NNE visible
21 May 8.9 05:02:24 10° N 05:02:54 13° N 05:02:54 13° N visible
21 May 9.3 18:06:14 10° SSW 18:09:00 20° WSW 18:11:44 10° WNW visible
22 May 9.3 04:35:08 10° NNE 04:35:28 12° NNE 04:35:28 12° NNE visible
22 May 7.8 17:38:27 10° S 17:42:02 46° WSW 17:45:33 10° NNW visible
24 May 9.0 05:14:29 10° NNW 05:14:45 12° NNW 05:14:45 12° NNW visible
24 May 9.6 18:18:44 10° SW 18:20:44 14° WSW 18:22:42 10° WNW visible
25 May 9.2 04:46:53 10° N 04:47:18 13° N 04:47:18 13° N visible
25 May 8.6 17:50:29 10° S 17:53:47 31° WSW 17:57:02 10° NW visible
